Time,TemperatureF,DewpointF,PressureIn,WindDirection,WindDirectionDegrees,WindSpeedMPH,WindSpeedGustMPH,Humidity,HourlyPrecipIn,Conditions,Clouds,dailyrainin,SoftwareType,DateUTC
2013-01-16 00:23:00,38.0,-99.9,30.16,NE,54,-999.0,-999.0,-999,-99.99,,,-99.99,,2013-01-16 05:23:00,
2013-01-16 00:33:00,38.0,-99.9,30.16,NE,54,-999.0,-999.0,-999,-99.99,,,-99.99,,2013-01-16 05:33:00,
2013-01-16 00:43:00,38.0,-99.9,30.16,NE,54,-999.0,-999.0,-999,-99.99,,,-99.99,,2013-01-16 05:43:00,
2013-01-16 00:53:00,38.0,-99.9,30.15,NE,54,-999.0,-999.0,-999,-99.99,,,-99.99,,2013-01-16 05:53:00,
2013-01-16 01:22:00,38.0,-99.9,30.15,NE,54,-999.0,-999.0,-999,-99.99,,,-99.99,,2013-01-16 06:22:00,
2013-01-16 01:33:00,38.0,-99.9,30.15,NE,54,-999.0,-999.0,-999,-99.99,,,-99.99,,2013-01-16 06:33:00,
2013-01-16 01:43:00,38.0,-99.9,30.15,NE,54,-999.0,-999.0,-999,-99.99,,,-99.99,,2013-01-16 06:43:00,
2013-01-16 02:22:00,39.0,-99.9,30.11,NE,37,-999.0,-999.0,-999,-99.99,,,-99.99,,2013-01-16 07:22:00,
2013-01-16 02:33:00,39.0,-99.9,30.11,NE,37,-999.0,-999.0,-999,-99.99,,,-99.99,,2013-01-16 07:33:00,
2013-01-16 02:42:00,39.0,-99.9,30.11,NE,37,-999.0,-999.0,-999,-99.99,,,-99.99,,2013-01-16 07:42:00,
2013-01-16 02:52:00,39.0,-99.9,30.11,NE,37,-999.0,-999.0,-999,-99.99,,,-99.99,,2013-01-16 07:52:00,
2013-01-16 02:53:00,39.0,-99.9,30.09,NE,37,-999.0,-999.0,-999,-99.99,,,-99.99,,2013-01-16 07:53:00,
2013-01-16 03:23:00,39.0,-99.9,30.09,NE,37,-999.0,-999.0,-999,-99.99,,,-99.99,,2013-01-16 08:23:00,
2013-01-16 03:33:00,39.0,-99.9,30.09,NE,37,-999.0,-999.0,-999,-99.99,,,-99.99,,2013-01-16 08:33:00,
2013-01-16 03:42:00,39.0,-99.9,30.09,NE,37,-999.0,-999.0,-999,-99.99,,,-99.99,,2013-01-16 08:42:00,
2013-01-16 03:52:00,39.0,-99.9,30.03,East,80,15.0,24.0,-999,-99.99,,,-99.99,,2013-01-16 08:52:00,
2013-01-16 04:22:00,39.0,-99.9,30.03,East,80,15.0,24.0,-999,-99.99,,,-99.99,,2013-01-16 09:22:00,
2013-01-16 04:33:00,39.0,-99.9,30.03,East,80,15.0,24.0,-999,-99.99,,,-99.99,,2013-01-16 09:33:00,
2013-01-16 04:43:00,39.0,-99.9,30.03,East,80,15.0,24.0,-999,-99.99,,,-99.99,,2013-01-16 09:43:00,
2013-01-16 04:53:00,38.0,-99.9,30.07,NNE,26,-999.0,6.0,-999,-99.99,,,-99.99,,2013-01-16 09:53:00,
2013-01-16 05:22:00,38.0,-99.9,30.07,NNE,26,-999.0,6.0,-999,-99.99,,,-99.99,,2013-01-16 10:22:00,
2013-01-16 05:33:00,38.0,-99.9,30.07,NNE,26,-999.0,6.0,-999,-99.99,,,-99.99,,2013-01-16 10:33:00,
2013-01-16 05:43:00,38.0,-99.9,30.07,NNE,26,-999.0,6.0,-999,-99.99,,,-99.99,,2013-01-16 10:43:00,
2013-01-16 05:52:00,37.0,-99.9,30.08,NE,39,10.0,-999.0,-999,-99.99,,,-99.99,,2013-01-16 10:52:00,
2013-01-16 06:23:00,37.0,-99.9,30.08,NE,39,10.0,-999.0,-999,-99.99,,,-99.99,,2013-01-16 11:23:00,
2013-01-16 06:33:00,37.0,-99.9,30.08,NE,39,10.0,-999.0,-999,-99.99,,,-99.99,,2013-01-16 11:33:00,
2013-01-16 06:43:00,37.0,-99.9,30.08,NE,39,10.0,-999.0,-999,-99.99,,,-99.99,,2013-01-16 11:43:00,
2013-01-16 06:53:00,38.0,-99.9,30.03,ENE,77,-999.0,-999.0,-999,-99.99,,,-99.99,,2013-01-16 11:53:00,
2013-01-16 07:22:00,38.0,-99.9,30.03,ENE,77,-999.0,-999.0,-999,-99.99,,,-99.99,,2013-01-16 12:22:00,
2013-01-16 07:33:00,38.0,-99.9,30.03,ENE,77,-999.0,-999.0,-999,-99.99,,,-99.99,,2013-01-16 12:33:00,
2013-01-16 07:43:00,38.0,-99.9,30.03,ENE,77,-999.0,-999.0,-999,-99.99,,,-99.99,,2013-01-16 12:43:00,
2013-01-16 07:53:00,40.0,-99.9,30.03,ENE,70,-999.0,-999.0,-999,-99.99,,,-99.99,,2013-01-16 12:53:00,
2013-01-16 08:23:00,40.0,-99.9,30.03,ENE,70,-999.0,-999.0,-999,-99.99,,,-99.99,,2013-01-16 13:23:00,
2013-01-16 08:33:00,40.0,-99.9,30.03,ENE,70,-999.0,-999.0,-999,-99.99,,,-99.99,,2013-01-16 13:33:00,
2013-01-16 08:43:00,40.0,-99.9,30.03,ENE,70,-999.0,-999.0,-999,-99.99,,,-99.99,,2013-01-16 13:43:00,
2013-01-16 08:52:00,40.0,-99.9,30.01,ENE,70,-999.0,-999.0,-999,-99.99,,,-99.99,,2013-01-16 13:52:00,
2013-01-16 09:23:00,40.0,-99.9,30.01,ENE,70,-999.0,-999.0,-999,-99.99,,,-99.99,,2013-01-16 14:23:00,
2013-01-16 09:33:00,40.0,-99.9,30.01,ENE,70,-999.0,-999.0,-999,-99.99,,,-99.99,,2013-01-16 14:33:00,
2013-01-16 09:43:00,40.0,-99.9,30.01,ENE,70,-999.0,-999.0,-999,-99.99,,,-99.99,,2013-01-16 14:43:00,
2013-01-16 09:53:00,41.0,-99.9,30.01,ENE,70,-999.0,-999.0,-999,-99.99,,,-99.99,,2013-01-16 14:53:00,
2013-01-16 10:23:00,41.0,-99.9,30.01,ENE,70,-999.0,-999.0,-999,-99.99,,,-99.99,,2013-01-16 15:23:00,
2013-01-16 10:33:00,41.0,-99.9,30.01,ENE,70,-999.0,-999.0,-999,-99.99,,,-99.99,,2013-01-16 15:33:00,
2013-01-16 10:43:00,41.0,-99.9,30.01,ENE,70,-999.0,-999.0,-999,-99.99,,,-99.99,,2013-01-16 15:43:00,
2013-01-16 10:53:00,41.0,-99.9,29.99,ENE,70,-999.0,-999.0,-999,-99.99,,,-99.99,,2013-01-16 15:53:00,
2013-01-16 11:23:00,41.0,-99.9,29.99,ENE,70,-999.0,-999.0,-999,-99.99,,,-99.99,,2013-01-16 16:23:00,
2013-01-16 11:33:00,41.0,-99.9,29.99,ENE,70,-999.0,-999.0,-999,-99.99,,,-99.99,,2013-01-16 16:33:00,
2013-01-16 11:43:00,41.0,-99.9,29.99,ENE,70,-999.0,-999.0,-999,-99.99,,,-99.99,,2013-01-16 16:43:00,
2013-01-16 11:53:00,42.0,-99.9,29.95,ENE,70,-999.0,-999.0,-999,-99.99,,,-99.99,,2013-01-16 16:53:00,
2013-01-16 12:23:00,42.0,-99.9,29.95,ENE,70,-999.0,-999.0,-999,-99.99,,,-99.99,,2013-01-16 17:23:00,
2013-01-16 12:33:00,42.0,-99.9,29.95,ENE,70,-999.0,-999.0,-999,-99.99,,,-99.99,,2013-01-16 17:33:00,
2013-01-16 12:44:00,42.0,-99.9,29.95,ENE,70,-999.0,-999.0,-999,-99.99,,,-99.99,,2013-01-16 17:44:00,
2013-01-16 13:53:00,42.0,-99.9,29.86,ENE,70,-999.0,-999.0,-999,-99.99,,,-99.99,,2013-01-16 18:53:00,
2013-01-16 14:23:00,42.0,-99.9,29.86,ENE,70,-999.0,-999.0,-999,-99.99,,,-99.99,,2013-01-16 19:23:00,
2013-01-16 14:33:00,42.0,-99.9,29.86,ENE,70,-999.0,-999.0,-999,-99.99,,,-99.99,,2013-01-16 19:33:00,
2013-01-16 14:43:00,42.0,-99.9,29.86,ENE,70,-999.0,-999.0,-999,-99.99,,,-99.99,,2013-01-16 19:43:00,
2013-01-16 14:53:00,42.0,-99.9,29.86,ENE,70,-999.0,-999.0,-999,-99.99,,,-99.99,,2013-01-16 19:53:00,
2013-01-16 15:23:00,42.0,-99.9,29.86,ENE,70,-999.0,-999.0,-999,-99.99,,,-99.99,,2013-01-16 20:23:00,
2013-01-16 15:33:00,42.0,-99.9,29.86,ENE,70,-999.0,-999.0,-999,-99.99,,,-99.99,,2013-01-16 20:33:00,
2013-01-16 15:43:00,42.0,-99.9,29.86,ENE,70,-999.0,-999.0,-999,-99.99,,,-99.99,,2013-01-16 20:43:00,
2013-01-16 15:53:00,42.0,-99.9,29.90,ENE,70,-999.0,-999.0,-999,-99.99,,,-99.99,,2013-01-16 20:53:00,
2013-01-16 16:23:00,42.0,-99.9,29.90,ENE,70,-999.0,-999.0,-999,-99.99,,,-99.99,,2013-01-16 21:23:00,
2013-01-16 16:33:00,42.0,-99.9,29.90,ENE,70,-999.0,-999.0,-999,-99.99,,,-99.99,,2013-01-16 21:33:00,
2013-01-16 16:43:00,42.0,-99.9,29.90,ENE,70,-999.0,-999.0,-999,-99.99,,,-99.99,,2013-01-16 21:43:00,
2013-01-16 16:52:00,41.0,-99.9,29.96,ENE,70,-999.0,-999.0,-999,-99.99,,,-99.99,,2013-01-16 21:52:00,
2013-01-16 17:23:00,41.0,-99.9,29.96,ENE,70,-999.0,-999.0,-999,-99.99,,,-99.99,,2013-01-16 22:23:00,
2013-01-16 17:33:00,41.0,-99.9,29.96,ENE,70,-999.0,-999.0,-999,-99.99,,,-99.99,,2013-01-16 22:33:00,
2013-01-16 17:43:00,41.0,-99.9,29.96,ENE,70,-999.0,-999.0,-999,-99.99,,,-99.99,,2013-01-16 22:43:00,
2013-01-16 17:52:00,39.0,-99.9,29.96,NNW,328,-999.0,-999.0,-999,-99.99,,,-99.99,,2013-01-16 22:52:00,
2013-01-16 18:23:00,39.0,-99.9,29.96,NNW,328,-999.0,-999.0,-999,-99.99,,,-99.99,,2013-01-16 23:23:00,
2013-01-16 18:33:00,39.0,-99.9,29.96,NNW,328,-999.0,-999.0,-999,-99.99,,,-99.99,,2013-01-16 23:33:00,
2013-01-16 18:43:00,39.0,-99.9,29.96,NNW,328,-999.0,-999.0,-999,-99.99,,,-99.99,,2013-01-16 23:43:00,
2013-01-16 18:53:00,40.0,-99.9,29.99,NNW,328,-999.0,-999.0,-999,-99.99,,,-99.99,,2013-01-16 23:53:00,
2013-01-16 19:23:00,40.0,-99.9,29.99,NNW,328,-999.0,-999.0,-999,-99.99,,,-99.99,,2013-01-17 00:23:00,
2013-01-16 19:33:00,40.0,-99.9,29.99,NNW,328,-999.0,-999.0,-999,-99.99,,,-99.99,,2013-01-17 00:33:00,
2013-01-16 19:43:00,40.0,-99.9,29.99,NNW,328,-999.0,-999.0,-999,-99.99,,,-99.99,,2013-01-17 00:43:00,
2013-01-16 19:52:00,39.0,-99.9,29.98,NNW,328,-999.0,-999.0,-999,-99.99,,,-99.99,,2013-01-17 00:52:00,
2013-01-16 20:22:00,39.0,-99.9,29.98,NNW,328,-999.0,-999.0,-999,-99.99,,,-99.99,,2013-01-17 01:22:00,
2013-01-16 20:33:00,39.0,-99.9,29.98,NNW,328,-999.0,-999.0,-999,-99.99,,,-99.99,,2013-01-17 01:33:00,
2013-01-16 20:43:00,39.0,-99.9,29.98,NNW,328,-999.0,-999.0,-999,-99.99,,,-99.99,,2013-01-17 01:43:00,
2013-01-16 20:52:00,39.0,-99.9,29.98,NNW,328,-999.0,-999.0,-999,-99.99,,,-99.99,,2013-01-17 01:52:00,
2013-01-16 21:22:00,39.0,-99.9,29.98,NNW,328,-999.0,-999.0,-999,-99.99,,,-99.99,,2013-01-17 02:22:00,
2013-01-16 21:32:00,39.0,-99.9,29.98,NNW,328,-999.0,-999.0,-999,-99.99,,,-99.99,,2013-01-17 02:32:00,
2013-01-16 21:43:00,39.0,-99.9,29.98,NNW,328,-999.0,-999.0,-999,-99.99,,,-99.99,,2013-01-17 02:43:00,
2013-01-16 21:52:00,40.0,-99.9,29.98,NNW,328,-999.0,-999.0,-999,-99.99,,,-99.99,,2013-01-17 02:52:00,
2013-01-16 22:22:00,40.0,-99.9,29.98,NNW,328,-999.0,-999.0,-999,-99.99,,,-99.99,,2013-01-17 03:22:00,
2013-01-16 22:33:00,40.0,-99.9,29.98,NNW,328,-999.0,-999.0,-999,-99.99,,,-99.99,,2013-01-17 03:33:00,
2013-01-16 22:43:00,40.0,-99.9,29.98,NNW,328,-999.0,-999.0,-999,-99.99,,,-99.99,,2013-01-17 03:43:00,
2013-01-16 22:53:00,40.0,-99.9,29.98,NNW,328,-999.0,-999.0,-999,-99.99,,,-99.99,,2013-01-17 03:53:00,
2013-01-16 23:23:00,40.0,-99.9,29.98,NNW,328,-999.0,-999.0,-999,-99.99,,,-99.99,,2013-01-17 04:23:00,
2013-01-16 23:33:00,40.0,-99.9,29.98,NNW,328,-999.0,-999.0,-999,-99.99,,,-99.99,,2013-01-17 04:33:00,
2013-01-16 23:43:00,40.0,-99.9,29.98,NNW,328,-999.0,-999.0,-999,-99.99,,,-99.99,,2013-01-17 04:43:00,
2013-01-16 23:53:00,40.0,-99.9,29.98,NNW,328,-999.0,-999.0,-999,-99.99,,,-99.99,,2013-01-17 04:53:00,